COSMOS 2251 DEB, 33945

Orbit data source: Space-Track

COSMOS 2251 DEB, 33945 is space debris in LEO originally from a launch on Wed, 16 Jun 1993 UTC launched from the Plesetsk Missile And Space Complex (PKMTR). The debris from Iridium 33, an American commercial communications satellite, has been tracked extensively since its accidental collision with the defunct Russian satellite Cosmos 2251 in 2009. This event, occurring at high speed in low Earth orbit (LEO), generated thousands of pieces of space debris, significantly increasing the risk of further collisions. The Iridium 33 debris cloud has impacted space traffic management and orbital debris mitigation strategies, making it a subject of ongoing study in space situational awareness.

Loading next visibility...
Identifier
33945, 1993-036FA
Orbit
LEO
Country
Flag of CISCIS
Related business
Manufacturer
Unknown
Mission
Spacecraft
Bus & Motor
Unknown
Mass
Unknown
Launch date (UTC)
1993-06-16 (32 years ago)
Launch vehicle
Unknown
Launch site
Plesetsk Missile And Space Complex (PKMTR)
Object type
Payload
Rocket body
Debris
Shape & HBR
Unknown shape, 0.3 m
Radar Cross Section
Small (<0.1 m²)

Expand to show TLE details & history
Last TLE update: 8 hours ago

TLE from 8 hours ago
0 COSMOS 2251 DEB
1 33945U 93036FA  25299.70932661  .00000511  00000-0  18965-3 0  9995
2 33945  74.0317  32.4399 0021827 134.8823 225.4106 14.34547907873414
Epoch: 2025-10-26T17:01Z
TLE epoch observation values (Epoch: 2025-10-26T17:01:25.819Z)
Latitude
-0.00002°
Longitude
101.76069°
Altitude
790.161 km
Speed
7.453 km/s
True Right ascension
02h 09m 45s
True Declination
0° 00' 00"
Sunlit
Object was in full shadow at epoch
Visualization orbit readout
Latitude
Unknown
Longitude
Unknown
Altitude
Unknown
Speed
Unknown
Apparent Right ascension
Unknown
Apparent Declination
Unknown
Sunlit
N/A
Visualization observer readout
Local Sidereal Time
20:12:24
Azimuth
Unknown
Elevation
Unknown
Doppler factor
Unknown
Orbital elements
Apogee altitude
789.807 km
Perigee altitude
758.584 km
Semi-major axis
7,152.332 km
Eccentricity
0.00218
Inclination
74.0317°
RAAN
32.4399°
Arg. of periapsis
134.8823°
True anomaly
225.23282°
Mean anomaly
225.4106°
Eccentric anomaly
225.32167°
Mean motion
3.58816 °/min
Orbital period
100.33 mins
BSTAR
0.00018965
Loading maneuver chart data...
Computing Atmospheric mass density...
Loading historical data...
Loading historical data...
Loading historical data...
Loading historical data...
Loading historical data...
Loading historical data...
Loading historical data...

Documentation

Showing up to 5 results
|